Powrót do katalogu

STARLINK-32258

AktywnyŁącznośćVLEO
NORAD 60939·PAYLOAD·🇺🇸 United States

Wystrzelony Aug 31, 2024 z Vandenberg Space Force Base

Loading…

Następne Przeloty (najbliższe 24 godziny)

TLE

ŚwieżeSource: CelesTrak SupGP

Epoka: Sep 14, 2026, 20:50 UTC

1 60939C 24155R   26257.86854167 -.00021554  00000+0 -63694-3 0  2577
2 60939  53.1582 327.6949 0001121  82.4158 180.4765 15.34395531    17

Śledź STARLINK-32258 w czasie rzeczywistym z AllMySat

Download on the App Store